Terminal Aerodrome Forecast
Issued by NWS

Home | Current Version | Previous Version | Text Only | Print | Product List | Glossary On
Versions: 1 2 3 4 5 6 7 8 9 10 11 12 13 14 15 16 17 18 19 20
000
FTUS45 KFGZ 020536
TAFGCN
TAF
KGCN 020536Z 0206/0306 VRB05KT P6SM SCT060 BKN110
      TEMPO 0207/0208 08012KT 5SM -TSRA BKN060CB
     FM021800 28006KT P6SM SCT090 SCT120 PROB30 0220/0224 5SM -TSRA
      BKN060CB=

USA.gov is the U.S. government's official web portal to all federal, state and local government web resources and services.